Time,TemperatureF,DewpointF,PressureIn,WindDirection,WindDirectionDegrees,WindSpeedMPH,WindSpeedGustMPH,Humidity,HourlyPrecipIn,Conditions,Clouds,dailyrainin,SolarRadiationWatts/m^2,SoftwareType,DateUTC
2013-04-10 00:00:00,56.3,43.5,30.14,NNE,22,0.0,3.0,62,0.00,,,0.00,0.00,VWS V14.01,2013-04-10 07:00:00,
2013-04-10 00:10:00,56.5,43.7,30.13,NNE,22,0.0,2.0,62,0.00,,,0.00,0.00,VWS V14.01,2013-04-10 07:10:00,
2013-04-10 00:20:00,55.5,43.5,30.14,NNE,22,0.0,1.0,64,0.00,,,0.00,0.00,VWS V14.01,2013-04-10 07:20:00,
2013-04-10 00:30:00,54.5,43.8,30.13,North,0,0.0,4.0,67,0.00,,,0.00,0.00,VWS V14.01,2013-04-10 07:30:00,
2013-04-10 00:40:00,54.1,43.8,30.13,NNW,338,0.0,4.0,68,0.00,,,0.00,0.00,VWS V14.01,2013-04-10 07:40:00,
2013-04-10 00:50:00,54.6,43.9,30.14,NNW,338,0.0,3.0,67,0.00,,,0.00,0.00,VWS V14.01,2013-04-10 07:50:00,
2013-04-10 01:00:00,55.5,43.5,30.14,North,0,1.0,6.0,64,0.00,,,0.00,0.00,VWS V14.01,2013-04-10 08:00:00,
2013-04-10 01:10:00,55.7,43.7,30.14,North,0,0.0,5.0,64,0.00,,,0.00,0.00,VWS V14.01,2013-04-10 08:10:00,
2013-04-10 01:20:00,57.2,43.9,30.14,North,0,2.0,9.0,61,0.00,,,0.00,0.00,VWS V14.01,2013-04-10 08:20:00,
2013-04-10 01:30:00,57.8,44.0,30.14,NNW,338,3.0,9.0,60,0.00,,,0.00,0.00,VWS V14.01,2013-04-10 08:30:00,
2013-04-10 01:40:00,57.9,44.1,30.14,NNW,338,3.0,10.0,60,0.00,,,0.00,0.00,VWS V14.01,2013-04-10 08:40:00,
2013-04-10 01:50:00,57.8,44.0,30.14,North,0,3.0,10.0,60,0.00,,,0.00,0.00,VWS V14.01,2013-04-10 08:50:00,
2013-04-10 02:00:00,57.9,44.1,30.13,North,0,3.0,9.0,60,0.00,,,0.00,0.00,VWS V14.01,2013-04-10 09:00:00,
2013-04-10 02:10:00,58.0,44.6,30.13,NNW,338,3.0,10.0,61,0.00,,,0.00,0.00,VWS V14.01,2013-04-10 09:10:00,
2013-04-10 02:20:00,57.8,44.5,30.13,NW,315,2.0,10.0,61,0.00,,,0.00,0.00,VWS V14.01,2013-04-10 09:20:00,
2013-04-10 02:30:00,57.7,44.4,30.13,NNW,338,4.0,10.0,61,0.00,,,0.00,0.00,VWS V14.01,2013-04-10 09:30:00,
2013-04-10 02:40:00,57.7,44.4,30.13,NNW,338,5.0,13.0,61,0.00,,,0.00,0.00,VWS V14.01,2013-04-10 09:40:00,
2013-04-10 02:50:00,57.8,44.5,30.13,NNW,338,5.0,11.0,61,0.00,,,0.00,0.00,VWS V14.01,2013-04-10 09:50:00,
2013-04-10 03:00:00,57.3,44.4,30.13,NNW,338,5.0,14.0,62,0.00,,,0.00,0.00,VWS V14.01,2013-04-10 10:00:00,
2013-04-10 03:10:00,57.3,44.4,30.13,North,0,6.0,13.0,62,0.00,,,0.00,0.00,VWS V14.01,2013-04-10 10:10:00,
2013-04-10 03:20:00,57.3,44.4,30.13,North,0,5.0,16.0,62,0.00,,,0.00,0.00,VWS V14.01,2013-04-10 10:20:00,
2013-04-10 03:30:00,57.3,44.4,30.13,North,0,6.0,15.0,62,0.00,,,0.00,0.00,VWS V14.01,2013-04-10 10:30:00,
2013-04-10 03:40:00,56.6,44.6,30.13,NNE,22,5.0,12.0,64,0.00,,,0.00,0.00,VWS V14.01,2013-04-10 10:40:00,
2013-04-10 03:50:00,56.6,44.6,30.13,NNE,22,6.0,14.0,64,0.00,,,0.00,0.00,VWS V14.01,2013-04-10 10:50:00,
2013-04-10 04:00:00,56.3,44.7,30.13,North,0,6.0,13.0,65,0.00,,,0.00,0.00,VWS V14.01,2013-04-10 11:00:00,
2013-04-10 04:10:00,56.0,44.4,30.13,North,0,6.0,14.0,65,0.00,,,0.00,0.00,VWS V14.01,2013-04-10 11:10:00,
2013-04-10 04:20:00,56.0,44.4,30.13,North,0,6.0,13.0,65,0.00,,,0.00,0.00,VWS V14.01,2013-04-10 11:20:00,
2013-04-10 04:30:00,55.9,44.7,30.13,North,0,4.0,13.0,66,0.00,,,0.00,0.00,VWS V14.01,2013-04-10 11:30:00,
2013-04-10 04:40:00,56.3,44.7,30.13,North,0,4.0,12.0,65,0.00,,,0.00,0.00,VWS V14.01,2013-04-10 11:40:00,
2013-04-10 04:50:00,56.2,44.6,30.13,North,0,3.0,8.0,65,0.00,,,0.00,0.00,VWS V14.01,2013-04-10 11:50:00,
2013-04-10 05:00:00,56.1,44.9,30.13,North,0,1.0,7.0,66,0.00,,,0.00,0.00,VWS V14.01,2013-04-10 12:00:00,
2013-04-10 05:10:00,56.1,44.9,30.13,North,0,3.0,7.0,66,0.00,,,0.00,0.00,VWS V14.01,2013-04-10 12:10:00,
2013-04-10 05:20:00,56.0,44.8,30.14,NNE,22,2.0,8.0,66,0.00,,,0.00,0.00,VWS V14.01,2013-04-10 12:20:00,
2013-04-10 05:30:00,55.8,45.0,30.14,NNE,22,0.0,4.0,67,0.00,,,0.00,0.00,VWS V14.01,2013-04-10 12:30:00,
2013-04-10 05:40:00,55.0,44.7,30.14,NW,315,0.0,4.0,68,0.00,,,0.00,0.00,VWS V14.01,2013-04-10 12:40:00,
2013-04-10 05:50:00,54.7,44.7,30.14,NNW,338,0.0,4.0,69,0.00,,,0.00,0.00,VWS V14.01,2013-04-10 12:50:00,
2013-04-10 06:00:00,54.8,44.5,30.14,NW,315,0.0,3.0,68,0.00,,CLR,0.00,0.00,VWS V14.01,2013-04-10 13:00:00,
2013-04-10 06:20:00,54.8,44.8,30.15,NNE,22,0.0,4.0,69,0.00,,,0.00,0.00,VWS V14.01,2013-04-10 13:20:00,
2013-04-10 06:30:00,55.5,45.1,30.15,North,0,2.0,6.0,68,0.00,,,0.00,0.00,VWS V14.01,2013-04-10 13:30:00,
2013-04-10 06:40:00,56.1,44.9,30.15,North,0,2.0,11.0,66,0.00,,,0.00,0.00,VWS V14.01,2013-04-10 13:40:00,
2013-04-10 06:50:00,56.3,45.1,30.16,North,0,2.0,10.0,66,0.00,,,0.00,5.00,VWS V14.01,2013-04-10 13:50:00,
2013-04-10 07:00:00,56.4,45.2,30.16,North,0,2.0,7.0,66,0.00,,,0.00,10.00,VWS V14.01,2013-04-10 14:00:00,
2013-04-10 07:10:00,56.5,45.3,30.16,North,0,2.0,7.0,66,0.00,,,0.00,13.00,VWS V14.01,2013-04-10 14:10:00,
2013-04-10 07:20:00,56.5,45.3,30.17,NNW,338,2.0,9.0,66,0.00,,,0.00,17.00,VWS V14.01,2013-04-10 14:20:00,
2013-04-10 07:30:00,56.6,45.4,30.17,North,0,1.0,6.0,66,0.00,,,0.00,19.00,VWS V14.01,2013-04-10 14:30:00,
2013-04-10 07:40:00,56.7,45.1,30.18,North,0,1.0,6.0,65,0.00,,,0.00,23.00,VWS V14.01,2013-04-10 14:40:00,
2013-04-10 07:50:00,57.2,45.6,30.18,North,0,2.0,7.0,65,0.00,,,0.00,82.00,VWS V14.01,2013-04-10 14:50:00,
2013-04-10 08:00:00,58.5,46.0,30.18,NNE,22,2.0,7.0,63,0.00,,,0.00,193.00,VWS V14.01,2013-04-10 15:00:00,
2013-04-10 08:10:00,59.1,46.1,30.18,North,0,2.0,9.0,62,0.00,,,0.00,227.00,VWS V14.01,2013-04-10 15:10:00,
2013-04-10 08:20:00,60.0,46.1,30.18,North,0,4.0,9.0,60,0.00,,,0.00,261.00,VWS V14.01,2013-04-10 15:20:00,
2013-04-10 08:30:00,60.6,46.7,30.19,North,0,3.0,9.0,60,0.00,,,0.00,297.00,VWS V14.01,2013-04-10 15:30:00,
2013-04-10 08:40:00,61.1,46.7,30.18,North,0,4.0,9.0,59,0.00,,,0.00,332.00,VWS V14.01,2013-04-10 15:40:00,
2013-04-10 08:50:00,61.4,47.4,30.18,North,0,5.0,11.0,60,0.00,,,0.00,366.00,VWS V14.01,2013-04-10 15:50:00,
2013-04-10 09:00:00,62.2,47.7,30.18,North,0,4.0,9.0,59,0.00,,,0.00,400.00,VWS V14.01,2013-04-10 16:00:00,
2013-04-10 09:10:00,63.0,48.0,30.18,North,0,4.0,9.0,58,0.00,,,0.00,436.00,VWS V14.01,2013-04-10 16:10:00,
2013-04-10 09:20:00,64.4,48.4,30.18,NNW,338,4.0,11.0,56,0.00,,,0.00,471.00,VWS V14.01,2013-04-10 16:20:00,
2013-04-10 09:30:00,65.5,48.4,30.18,NW,315,4.0,11.0,54,0.00,,,0.00,503.00,VWS V14.01,2013-04-10 16:30:00,
2013-04-10 09:40:00,66.5,49.4,30.18,NNW,338,3.0,9.0,54,0.00,,,0.00,534.00,VWS V14.01,2013-04-10 16:40:00,
2013-04-10 09:50:00,67.2,48.5,30.19,NW,315,2.0,6.0,51,0.00,,,0.00,567.00,VWS V14.01,2013-04-10 16:50:00,
2013-04-10 10:00:00,67.9,50.2,30.18,NNW,338,1.0,6.0,53,0.00,,,0.00,595.00,VWS V14.01,2013-04-10 17:00:00,
2013-04-10 10:10:00,68.9,50.6,30.18,NNW,338,2.0,8.0,52,0.00,,,0.00,622.00,VWS V14.01,2013-04-10 17:10:00,
2013-04-10 10:20:00,69.8,50.3,30.18,NW,315,4.0,10.0,50,0.00,,,0.00,651.00,VWS V14.01,2013-04-10 17:20:00,
2013-04-10 10:30:00,70.7,50.6,30.18,WSW,248,2.0,7.0,49,0.00,,,0.00,678.00,VWS V14.01,2013-04-10 17:30:00,
2013-04-10 10:40:00,71.3,51.7,30.17,NW,315,1.0,5.0,50,0.00,,,0.00,703.00,VWS V14.01,2013-04-10 17:40:00,
2013-04-10 10:50:00,72.1,50.8,30.17,NNW,338,4.0,11.0,47,0.00,,,0.00,725.00,VWS V14.01,2013-04-10 17:50:00,
2013-04-10 11:00:00,73.2,52.4,30.17,NNW,338,4.0,11.0,48,0.00,,,0.00,748.00,VWS V14.01,2013-04-10 18:00:00,
2013-04-10 11:10:00,73.9,52.4,30.16,West,270,4.0,11.0,47,0.00,,,0.00,770.00,VWS V14.01,2013-04-10 18:10:00,
2013-04-10 11:20:00,74.2,52.7,30.16,WSW,248,7.0,15.0,47,0.00,,,0.00,790.00,VWS V14.01,2013-04-10 18:20:00,
2013-04-10 11:30:00,74.9,52.8,30.16,West,270,6.0,15.0,46,0.00,,,0.00,808.00,VWS V14.01,2013-04-10 18:30:00,
2013-04-10 11:40:00,75.9,52.5,30.15,NNW,338,5.0,16.0,44,0.00,,,0.00,824.00,VWS V14.01,2013-04-10 18:40:00,
2013-04-10 11:50:00,76.4,54.1,30.15,West,270,6.0,15.0,46,0.00,,,0.00,839.00,VWS V14.01,2013-04-10 18:50:00,
2013-04-10 12:00:00,77.5,52.6,30.15,NNW,338,5.0,13.0,42,0.00,,,0.00,853.00,VWS V14.01,2013-04-10 19:00:00,
2013-04-10 12:10:00,78.1,53.8,30.14,NNW,338,5.0,13.0,43,0.00,,,0.00,866.00,VWS V14.01,2013-04-10 19:10:00,
2013-04-10 12:20:00,78.5,51.5,30.14,NNW,338,6.0,14.0,39,0.00,,,0.00,877.00,VWS V14.01,2013-04-10 19:20:00,
2013-04-10 12:30:00,79.1,52.0,30.13,NNW,338,5.0,12.0,39,0.00,,,0.00,885.00,VWS V14.01,2013-04-10 19:30:00,
2013-04-10 12:40:00,79.8,51.2,30.12,NNW,338,5.0,12.0,37,0.00,,,0.00,893.00,VWS V14.01,2013-04-10 19:40:00,
2013-04-10 12:50:00,80.3,50.9,30.12,NNW,338,6.0,15.0,36,0.00,,,0.00,898.00,VWS V14.01,2013-04-10 19:50:00,
2013-04-10 13:00:00,80.6,50.5,30.12,NNW,338,8.0,18.0,35,0.00,,,0.00,902.00,VWS V14.01,2013-04-10 20:00:00,
2013-04-10 13:10:00,81.1,50.1,30.11,NNW,338,9.0,16.0,34,0.00,,,0.00,903.00,VWS V14.01,2013-04-10 20:10:00,
2013-04-10 13:20:00,81.7,49.8,30.10,NNW,338,9.0,21.0,33,0.00,,,0.00,905.00,VWS V14.01,2013-04-10 20:20:00,
2013-04-10 13:30:00,82.4,51.2,30.10,NNW,338,9.0,21.0,34,0.00,,,0.00,902.00,VWS V14.01,2013-04-10 20:30:00,
2013-04-10 13:40:00,82.8,54.6,30.10,NNW,338,7.0,17.0,38,0.00,,,0.00,897.00,VWS V14.01,2013-04-10 20:40:00,
2013-04-10 13:50:00,83.5,56.0,30.10,West,270,4.0,14.0,39,0.00,,,0.00,891.00,VWS V14.01,2013-04-10 20:50:00,
2013-04-10 14:00:00,83.5,53.0,30.09,West,270,5.0,16.0,35,0.00,,,0.00,886.00,VWS V14.01,2013-04-10 21:00:00,
2013-04-10 14:10:00,83.6,52.3,30.09,NW,315,5.0,16.0,34,0.00,,,0.00,875.00,VWS V14.01,2013-04-10 21:10:00,
2013-04-10 14:20:00,83.3,49.5,30.09,NNW,338,10.0,22.0,31,0.00,,,0.00,873.00,VWS V14.01,2013-04-10 21:20:00,
2013-04-10 14:30:00,83.1,49.4,30.09,NNW,338,9.0,17.0,31,0.00,,,0.00,862.00,VWS V14.01,2013-04-10 21:30:00,
2013-04-10 14:40:00,83.0,50.1,30.08,NW,315,10.0,18.0,32,0.00,,,0.00,848.00,VWS V14.01,2013-04-10 21:40:00,
2013-04-10 14:50:00,83.7,51.6,30.08,NW,315,8.0,21.0,33,0.00,,,0.00,832.00,VWS V14.01,2013-04-10 21:50:00,
2013-04-10 15:00:00,83.9,50.9,30.07,NNW,338,8.0,20.0,32,0.00,,,0.00,818.00,VWS V14.01,2013-04-10 22:00:00,
2013-04-10 15:10:00,83.5,49.7,30.08,NW,315,11.0,24.0,31,0.00,,,0.00,806.00,VWS V14.01,2013-04-10 22:10:00,
2013-04-10 15:20:00,83.6,53.1,30.07,NNW,338,8.0,24.0,35,0.00,,,0.00,784.00,VWS V14.01,2013-04-10 22:20:00,
2013-04-10 15:30:00,83.2,50.3,30.07,WSW,248,10.0,18.0,32,0.00,,,0.00,719.00,VWS V14.01,2013-04-10 22:30:00,
2013-04-10 15:40:00,82.5,51.3,30.06,WSW,248,12.0,19.0,34,0.00,,,0.00,708.00,VWS V14.01,2013-04-10 22:40:00,
2013-04-10 15:50:00,83.1,51.0,30.06,WSW,248,8.0,19.0,33,0.00,,,0.00,662.00,VWS V14.01,2013-04-10 22:50:00,
2013-04-10 16:00:00,82.7,51.5,30.05,WSW,248,8.0,19.0,34,0.00,,,0.00,602.00,VWS V14.01,2013-04-10 23:00:00,
2013-04-10 16:10:00,82.7,49.9,30.05,NNW,338,5.0,16.0,32,0.00,,,0.00,513.00,VWS V14.01,2013-04-10 23:10:00,
2013-04-10 16:20:00,82.1,51.0,30.05,NW,315,7.0,16.0,34,0.00,,,0.00,563.00,VWS V14.01,2013-04-10 23:20:00,
2013-04-10 16:30:00,82.3,49.5,30.04,West,270,9.0,20.0,32,0.00,,,0.00,600.00,VWS V14.01,2013-04-10 23:30:00,
2013-04-10 16:40:00,80.8,51.4,30.04,West,270,12.0,24.0,36,0.00,,,0.00,552.00,VWS V14.01,2013-04-10 23:40:00,
2013-04-10 16:50:00,79.5,51.7,30.04,West,270,14.0,22.0,38,0.00,,,0.00,564.00,VWS V14.01,2013-04-10 23:50:00,
2013-04-10 17:00:00,78.7,50.3,30.04,West,270,15.0,24.0,37,0.00,,,0.00,522.00,VWS V14.01,2013-04-11 00:00:00,
2013-04-10 17:10:00,78.4,50.7,30.04,West,270,13.0,23.0,38,0.00,,,0.00,494.00,VWS V14.01,2013-04-11 00:10:00,
2013-04-10 17:20:00,77.5,51.3,30.05,West,270,13.0,21.0,40,0.00,,,0.00,460.00,VWS V14.01,2013-04-11 00:20:00,
2013-04-10 17:30:00,77.2,52.4,30.05,West,270,10.0,20.0,42,0.00,,,0.00,424.00,VWS V14.01,2013-04-11 00:30:00,
2013-04-10 17:40:00,75.8,51.7,30.05,West,270,11.0,19.0,43,0.00,,,0.00,389.00,VWS V14.01,2013-04-11 00:40:00,
2013-04-10 17:50:00,74.9,52.8,30.05,West,270,11.0,19.0,46,0.00,,,0.00,358.00,VWS V14.01,2013-04-11 00:50:00,
2013-04-10 18:00:00,74.1,52.6,30.04,West,270,10.0,17.0,47,0.00,,,0.00,321.00,VWS V14.01,2013-04-11 01:00:00,
2013-04-10 18:10:00,73.3,52.5,30.05,West,270,10.0,18.0,48,0.00,,,0.00,278.00,VWS V14.01,2013-04-11 01:10:00,
2013-04-10 18:20:00,73.2,52.9,30.05,West,270,8.0,18.0,49,0.00,,,0.00,270.00,VWS V14.01,2013-04-11 01:20:00,
2013-04-10 18:30:00,73.1,52.8,30.05,West,270,5.0,14.0,49,0.00,,,0.00,224.00,VWS V14.01,2013-04-11 01:30:00,
2013-04-10 18:40:00,72.5,52.8,30.05,West,270,6.0,14.0,50,0.00,,,0.00,185.00,VWS V14.01,2013-04-11 01:40:00,
2013-04-10 18:50:00,71.6,52.5,30.05,West,270,7.0,14.0,51,0.00,,,0.00,142.00,VWS V14.01,2013-04-11 01:50:00,
2013-04-10 19:00:00,71.3,52.8,30.05,WSW,248,5.0,12.0,52,0.00,,,0.00,124.00,VWS V14.01,2013-04-11 02:00:00,
2013-04-10 19:10:00,70.7,52.8,30.06,WSW,248,6.0,14.0,53,0.00,,,0.00,96.00,VWS V14.01,2013-04-11 02:10:00,
2013-04-10 19:20:00,70.0,52.1,30.06,WSW,248,2.0,9.0,53,0.00,,,0.00,39.00,VWS V14.01,2013-04-11 02:20:00,
2013-04-10 19:30:00,68.9,52.1,30.05,West,270,3.0,10.0,55,0.00,,,0.00,15.00,VWS V14.01,2013-04-11 02:30:00,
2013-04-10 19:40:00,68.1,52.3,30.06,West,270,1.0,4.0,57,0.00,,,0.00,8.00,VWS V14.01,2013-04-11 02:40:00,
2013-04-10 19:50:00,67.4,52.1,30.05,NNW,338,1.0,5.0,58,0.00,,,0.00,2.00,VWS V14.01,2013-04-11 02:50:00,
2013-04-10 20:00:00,66.7,51.9,30.06,NNW,338,1.0,5.0,59,0.00,,,0.00,0.00,VWS V14.01,2013-04-11 03:00:00,
2013-04-10 20:10:00,66.1,51.8,30.06,NNW,338,3.0,7.0,60,0.00,,,0.00,0.00,VWS V14.01,2013-04-11 03:10:00,
2013-04-10 20:20:00,65.9,51.6,30.06,NW,315,4.0,10.0,60,0.00,,,0.00,0.00,VWS V14.01,2013-04-11 03:20:00,
2013-04-10 20:30:00,65.3,51.1,30.06,NW,315,3.0,7.0,60,0.00,,,0.00,0.00,VWS V14.01,2013-04-11 03:30:00,
2013-04-10 20:40:00,64.7,51.0,30.07,NW,315,2.0,9.0,61,0.00,,,0.00,0.00,VWS V14.01,2013-04-11 03:40:00,
2013-04-10 20:50:00,63.9,50.6,30.07,NW,315,1.0,9.0,62,0.00,,,0.00,0.00,VWS V14.01,2013-04-11 03:50:00,
2013-04-10 21:00:00,63.3,50.5,30.08,NW,315,3.0,7.0,63,0.00,,,0.00,0.00,VWS V14.01,2013-04-11 04:00:00,
2013-04-10 21:10:00,62.8,50.0,30.08,NNW,338,4.0,9.0,63,0.00,,,0.00,0.00,VWS V14.01,2013-04-11 04:10:00,
2013-04-10 21:20:00,62.2,50.3,30.08,NNW,338,2.0,6.0,65,0.00,,,0.00,0.00,VWS V14.01,2013-04-11 04:20:00,
2013-04-10 21:30:00,61.6,50.1,30.08,NNW,338,2.0,6.0,66,0.00,,,0.00,0.00,VWS V14.01,2013-04-11 04:30:00,
2013-04-10 21:40:00,61.2,50.2,30.08,NW,315,0.0,3.0,67,0.00,,,0.00,0.00,VWS V14.01,2013-04-11 04:40:00,
2013-04-10 21:50:00,60.5,49.9,30.08,NW,315,0.0,3.0,68,0.00,,,0.00,0.00,VWS V14.01,2013-04-11 04:50:00,
2013-04-10 22:00:00,60.0,49.4,30.08,NW,315,0.0,3.0,68,0.00,,,0.00,0.00,VWS V14.01,2013-04-11 05:00:00,
2013-04-10 22:10:00,59.8,49.2,30.08,NNW,338,3.0,7.0,68,0.00,,,0.00,0.00,VWS V14.01,2013-04-11 05:10:00,
2013-04-10 22:20:00,59.8,49.2,30.09,NNW,338,3.0,9.0,68,0.00,,,0.00,0.00,VWS V14.01,2013-04-11 05:20:00,
2013-04-10 22:30:00,59.7,49.1,30.09,NNW,338,3.0,9.0,68,0.00,,,0.00,0.00,VWS V14.01,2013-04-11 05:30:00,
2013-04-10 22:40:00,59.5,49.3,30.09,NNW,338,2.0,11.0,69,0.00,,,0.00,0.00,VWS V14.01,2013-04-11 05:40:00,
2013-04-10 22:50:00,59.5,48.9,30.09,NNW,338,4.0,10.0,68,0.00,,,0.00,0.00,VWS V14.01,2013-04-11 05:50:00,
2013-04-10 23:00:00,59.5,48.9,30.09,NNW,338,4.0,10.0,68,0.00,,,0.00,0.00,VWS V14.01,2013-04-11 06:00:00,
2013-04-10 23:10:00,59.0,48.9,30.09,NNW,338,3.0,9.0,69,0.00,,,0.00,0.00,VWS V14.01,2013-04-11 06:10:00,
2013-04-10 23:20:00,58.6,48.9,30.09,NNW,338,1.0,5.0,70,0.00,,,0.00,0.00,VWS V14.01,2013-04-11 06:20:00,
2013-04-10 23:30:00,58.3,49.0,30.09,NNW,338,3.0,11.0,71,0.00,,,0.00,0.00,VWS V14.01,2013-04-11 06:30:00,
2013-04-10 23:40:00,58.0,48.7,30.09,NNW,338,2.0,7.0,71,0.00,,,0.00,0.00,VWS V14.01,2013-04-11 06:40:00,
2013-04-10 23:50:00,57.7,48.8,30.09,NNW,338,1.0,6.0,72,0.00,,,0.00,0.00,VWS V14.01,2013-04-11 06:50:00,